Quillayute, WA

10:57 PM PST on January 20, 2018 (GMT -0800)
Quillayute

Weather History for KUIL - August, 2012

Change the Weather History Date:

Thursday, August 9, 2012

  Actual Average Record
Temperature  
Mean Temperature 60 °F 60 °F  
Max Temperature 69 °F 69 °F 99 °F (1981)
Min Temperature 50 °F 51 °F 41 °F (1975)
Degree Days  
Heating Degree Days 5 5  
Month to date heating degree days 45  
Since 1 June heating degree days 533  
Since 1 July heating degree days 239  
Cooling Degree Days 0 0  
Month to date cooling degree days 0  
Year to date cooling degree days 11  
Since 1 June cooling degree days 10  
Growing Degree Days 10 (Base 50)    
Moisture  
Dew Point 51 °F    
Average Humidity 84    
Maximum Humidity 100    
Minimum Humidity 53    
Precipitation  
Precipitation 0.00 in 0.07 in 0.36 in (1993)
Month to date precipitation 0.54  
Year to date precipitation 54.77  
Sea Level Pressure  
Sea Level Pressure 30.20 in    
Wind  
Wind Speed 4 mph (NNW)    
Max Wind Speed 17 mph    
Max Gust Speed 23 mph    
Visibility 5 miles    
Events Fog    
T = Trace of Precipitation, MM = Missing Value Source: NWS Daily Summary

Daily Weather History Graph

Daily Weather History Graph

Search for Another Location

Airport or City:

Trip Planner

Search our weather history database for the weather conditions in past years. The results will help you decide how hot, cold, wet, or windy it might be!

Date:

Astronomy

Aug. 09, 2012 Rise Set
Actual Time 6:05 AM PDT 8:40 PM PDT
Civil Twilight 5:30 AM PDT 9:15 PM PDT
Nautical Twilight 4:46 AM PDT 9:59 PM PDT
Astronomical Twilight 3:55 AM PDT 10:50 PM PDT
Moon 11:54 PM PDT (8/9) 2:33 PM PDT (8/9)
Length of Visible Light 15h 44m
Length of Day
14h 34m
Waning Gibbous, 50% of the Moon is Illuminated
Aug 9
Waning Gibbous
Aug 17
New
Aug 24
First Quarter
Aug 31
Full
Sep 8
Last Quarter

Hourly Weather History & Observations

Time (PDT) Temp. Dew Point Humidity Pressure Visibility Wind Dir Wind Speed Gust Speed Precip Events Conditions
12:53 AM 55.9 °F 54.0 °F 93% 30.24 in 6.0 mi Calm Calm - N/A   Clear
1:53 AM 54.0 °F 51.1 °F 90% 30.24 in 10.0 mi Calm Calm - N/A   Clear
2:19 AM 53.6 °F 51.8 °F 94% 30.23 in 8.0 mi Calm Calm - N/A   Scattered Clouds
2:53 AM 53.1 °F 50.0 °F 89% 30.22 in 10.0 mi Calm Calm - N/A   Clear
3:14 AM 53.6 °F 50.0 °F 88% 30.22 in 5.0 mi Calm Calm - N/A   Scattered Clouds
3:25 AM 51.8 °F 48.2 °F 88% 30.22 in 4.0 mi Calm Calm - N/A   Mostly Cloudy
3:28 AM 51.8 °F 48.2 °F 88% 30.22 in 1.5 mi Calm Calm - N/A   Mostly Cloudy
3:30 AM 51.8 °F 48.2 °F 88% 30.22 in 0.8 mi Calm Calm - N/A   Mist
3:41 AM 51.8 °F 48.2 °F 88% 30.22 in 1.5 mi Calm Calm - N/A   Scattered Clouds
3:46 AM 50.0 °F 48.2 °F 94% 30.22 in 1.0 mi Calm Calm - N/A   Mist
3:51 AM 51.8 °F 48.2 °F 88% 30.22 in 0.8 mi Calm Calm - N/A   Mist
3:53 AM 51.1 °F 48.9 °F 92% 30.22 in 0.8 mi Calm Calm - N/A   Mist
4:08 AM 50.0 °F 48.2 °F 94% 30.22 in 0.2 mi Calm Calm - N/A Fog Fog
4:26 AM 51.8 °F 50.0 °F 94% 30.22 in 0.5 mi Calm Calm - N/A Fog Fog
4:40 AM 51.8 °F 48.2 °F 88% 30.22 in 0.2 mi Calm Calm - N/A Fog Fog
4:53 AM 50.0 °F 48.9 °F 96% 30.22 in 0.8 mi Calm Calm - N/A   Mist
5:02 AM 51.8 °F 50.0 °F 94% 30.22 in 1.2 mi Calm Calm - N/A   Overcast
5:15 AM 51.8 °F 50.0 °F 94% 30.22 in 0.2 mi Calm Calm - N/A Fog Fog
5:30 AM 53.6 °F 51.8 °F 94% 30.22 in 0.2 mi Calm Calm - N/A Fog Fog
5:40 AM 51.8 °F 50.0 °F 94% 30.22 in 0.2 mi Calm Calm - N/A Fog Fog
5:53 AM 53.1 °F 51.1 °F 93% 30.22 in 0.2 mi Calm Calm - N/A Fog Fog
6:53 AM 54.0 °F 53.1 °F 97% 30.23 in 0.2 mi Calm Calm - N/A Fog Fog
7:10 AM 55.4 °F 53.6 °F 94% 30.22 in 0.8 mi Calm Calm - N/A   Overcast
7:23 AM 55.4 °F 53.6 °F 94% 30.21 in 1.8 mi Calm Calm - N/A   Overcast
7:25 AM 55.4 °F 53.6 °F 94% 30.21 in 3.0 mi Calm Calm - N/A   Overcast
7:53 AM 55.9 °F 54.0 °F 93% 30.22 in 10.0 mi Calm Calm - N/A   Overcast
8:27 AM 55.4 °F 55.4 °F 100% 30.23 in 10.0 mi Calm Calm - N/A   Overcast
8:53 AM 57.9 °F 55.9 °F 93% 30.23 in 10.0 mi Calm Calm - N/A   Overcast
9:53 AM 61.0 °F 55.9 °F 83% 30.22 in 10.0 mi North 3.5 mph - N/A   Overcast
10:53 AM 64.9 °F 54.0 °F 68% 30.21 in 10.0 mi NNE 5.8 mph - N/A   Overcast
11:16 AM 66.2 °F 53.6 °F 64% 30.20 in 10.0 mi North 8.1 mph - N/A   Unknown
11:53 AM 66.9 °F 53.1 °F 61% 30.20 in - Calm Calm - N/A   Unknown
12:11 PM 68.0 °F 55.4 °F 64% 30.20 in - Calm Calm - N/A   Overcast
12:53 PM 66.9 °F 55.0 °F 66% 30.19 in - Calm Calm - N/A   Mostly Cloudy
1:53 PM 66.9 °F 54.0 °F 63% 30.19 in 7.0 mi NW 11.5 mph 19.6 mph N/A   Clear
2:53 PM 64.9 °F 54.0 °F 68% 30.19 in 10.0 mi WNW 15.0 mph - N/A   Clear
3:53 PM 66.0 °F 53.1 °F 63% 30.19 in 10.0 mi NW 9.2 mph 23.0 mph N/A   Clear
4:53 PM 64.9 °F 52.0 °F 63% 30.17 in 10.0 mi NW 11.5 mph 19.6 mph N/A   Clear
5:53 PM 64.0 °F 50.0 °F 60% 30.16 in 10.0 mi NNW 12.7 mph 20.7 mph N/A   Clear
6:53 PM 61.0 °F 51.1 °F 70% 30.16 in 9.0 mi NW 8.1 mph - N/A   Clear
7:53 PM 57.9 °F 51.1 °F 78% 30.15 in 8.0 mi NW 6.9 mph - N/A   Clear
8:53 PM 55.9 °F 51.1 °F 84% 30.16 in 8.0 mi NW 3.5 mph - N/A   Clear
9:53 PM 54.0 °F 51.1 °F 90% 30.17 in 8.0 mi NW 4.6 mph - N/A   Clear
10:36 PM 53.6 °F 50.0 °F 88% 30.16 in 8.0 mi Calm Calm - N/A   Scattered Clouds
10:44 PM 53.6 °F 50.0 °F 88% 30.16 in 8.0 mi Calm Calm - N/A   Mostly Cloudy
10:53 PM 53.1 °F 50.0 °F 89% 30.16 in 7.0 mi Calm Calm - N/A   Overcast
11:53 PM 53.1 °F 48.9 °F 86% 30.17 in 8.0 mi Calm Calm - N/A   Overcast